SCP
0 0 0 0 0 0 0 0 0 0 0 0 0 0 0 0 0 0 0 0 0 0 0 0 0 0 0 0 0 0 0 0 0 0 0 0 0 0
0 0 0 0 0 0 0 0 0 0 0 0 0 0 0 0 0 0 0 0 0 0 0 0 0 0 0 0 0 0 0 0 0 0 0 0 0 0
0 0 0 0 0 0 0 0 0 0 0 0 0 0 0 0 0 0 0 0 0 0 0 0 0 0 0 0 0 0 0 0 0 0 0 0 0 0
0 0 0 0 0 0 0 0 0 0 0 0 0 0 0 0 0 0 0 0 0 0 0 0 0 0 0 0 0 0 0 0 0 0 0 0 0 0
0 0 0 0 0 0 0 0 0 0 0 0 0 0 0 0 0 0 0 0 0 0 0 0 0 0 0 0 0 0 0 0 0 0 0 0 0 0
0 0 0 0 0 0 0 0 0 0 0 0 0 0 0 0 0 0 0 0 0 0 0 0 0 0 0 0 0 0 0 0 0 0 0 0 0 0
0 0 0 0 0 0 0 0 0 0 0 0 0 0 0 0 0 0 0 0 0 0 0 0 0 0 0 0 0 0 0 0 0 0 0 0 0 0
0 0 0 0 0 0 0 0 0 0 0 0 0 0 0 0 0 0 0 0 0 0 0 0 0 0 0 0 0 0 0 0 0 0 0 0 0 0
0 0 0 0 0 0 0 0 0 0 0 0 0 0 0 0 0 0 0 0 0 0 0 0 0 0 0 0 0 0 0 0 0 0 0 0 0 0
0 0 0 0 0 0 0 0 0 0 0 0 0 0 0 0 0 0 0 0 0 0 0 0 0 0 0 0 0 0 0 0 0 0 0 0 0 0
0 0 0 0 0 0 0 0 0 0 0 0 0 0 0 0 0 0 0 0 0 0 0 0 0 0 0 0 0 0 0 0 0 0 0 0 0 0
0 0 0 0 0 0 0 0 0 0 0 0 0 0 0 0 0 0 0 0 0 0 0 0 0 0 0 0 0 0 0 0 0 0 0 0 0 0
0 0 0 0 0 0 0 0 0 0 0 0 0 0 0 0 0 0 0 0 0 0 0 0 0 0 0 0 0 0 0 0 0 0 0 0 0 0
0 0 0 0 0 0 0 0 0 0 0 0 0 0 0 0 0 0 0 0 0 0 0 0 0 0 0 0 0 0 0 0 0 0 0 0 0 0
0 0 0 0 0 0 0 0 0 0 0 0 0 0 0 0 0 0 0 0 0 0 0 0 0 0 0 0 0 0 0 0 0 0 0 0 0 0
0 0 0 0 0 0 0 0 0 0 0 0 0 0 0 0 0 0 0 0 0 0 0 0 0 0 0 0 0 0 0 0 0 0 0 0 0 0
0 0 0 0 0 0 0 0 0 0 0 0 0 0 0 0 0 0 0 0 0 0 0 0 0 0 0 0 0 0 0 0 0 0 0 0 0 0
0 0 0 0 0 0 0 0 0 0 0 0 0 0 0 0 0 0 0 0 0 0 0 0 0 0 0 0 0 0 0 0 0 0 0 0 0 0
0 0 0 0 0 0 0 0 0 0 0 0 0 0 0 0 0 0 0 0 0 0 0 0 0 0 0 0 0 0 0 0 0 0 0 0 0 0
0 0 0 0 0 0 0 0 0 0 0 0 0 0 0 0 0 0 0 0 0 0 0 0 0 0 0 0 0 0 0 0 0 0 0 0 0 0
0 0 0 0 0 0 0 0 0 0 0 0 0 0 0 0 0 0 0 0 0 0 0 0 0 0 0 0 0 0 0 0 0 0 0 0 0 0
0 0 0 0 0 0 0 0 0 0 0 0 0 0 0 0 0 0 0 0 0 0 0 0 0 0 0 0 0 0 0 0 0 0 0 0 0 0
0 0 0 0 0 0 0 0 0 0 0 0 0 0 0 0 0 0 0 0 0 0 0 0 0 0 0 0 0 0 0 0 0 0 0 0 0 0
Wind_Speed
2 2 2 2 2 2 3 4 4 4 2 1 2 1 2 2 1 4 4 2 2 3 4 4 5 5 6 6 7 7 8 9 9 10 10 11 11 11
1 1 2 2 2 2 3 3 4 4 4 2 2 2 3 4 1 4 4 3 5 4 3 3 4 5 6 6 6 6 6 7 8 9 10 10 11 11
2 2 2 3 3 3 3 3 3 4 4 3 3 1 2 4 4 4 4 4 2 6 5 4 5 5 6 6 6 5 6 6 6 7 8 9 10 10
2 2 2 2 3 3 3 3 3 3 5 5 4 3 3 4 4 5 5 4 4 5 7 6 6 6 6 6 6 5 5 6 6 6 7 7 8 8
2 2 3 3 3 2 3 3 3 3 3 4 4 3 3 3 4 5 5 4 6 3 7 8 8 7 7 7 6 6 6 6 6 6 7 7 7 8
2 3 3 3 3 3 4 4 4 4 4 4 4 3 3 3 4 4 4 3 4 4 3 4 5 8 9 8 7 6 6 6 6 6 7 7 7 8
3 3 3 2 3 4 4 4 4 4 4 3 3 4 3 3 4 4 4 5 4 4 4 4 3 4 5 8 8 6 6 6 6 6 7 7 7 7
3 3 3 4 4 6 5 4 4 5 5 4 4 4 4 4 4 5 5 5 5 3 5 5 4 4 4 3 2 4 5 5 6 6 6 7 7 8
3 4 4 2 4 4 4 7 7 7 7 6 6 6 6 5 5 6 5 6 6 4 5 6 4 4 4 1 4 5 5 5 6 6 6 6 6 7
4 4 4 4 3 4 4 4 4 3 5 6 5 6 5 5 5 6 6 6 7 4 4 6 4 4 4 2 4 5 5 6 6 6 6 6 6 6
4 4 4 4 0 2 4 4 4 3 3 4 4 5 5 6 6 6 5 5 5 4 2 4 4 4 4 3 2 6 6 7 7 7 7 7 7 7
3 3 3 3 1 2 4 4 5 4 4 3 4 6 6 6 8 6 5 5 5 4 2 3 4 4 4 3 3 2 3 5 7 7 8 8 7 7
3 3 1 3 3 4 6 5 4 5 5 5 4 4 4 3 4 4 4 5 5 5 3 4 5 5 4 4 4 3 3 2 3 4 7 8 8 8
4 3 1 2 3 5 4 3 5 6 5 4 4 3 3 3 2 3 4 5 5 6 5 5 5 5 5 5 4 3 3 3 3 3 3 4 7 8
3 2 2 3 4 4 5 6 6 5 4 4 4 3 3 2 3 2 3 4 5 5 4 4 5 5 5 5 4 4 4 4 3 4 4 4 4 4
3 3 5 6 5 3 3 5 4 3 4 4 4 3 3 3 3 2 2 3 3 2 2 3 4 5 5 5 5 4 4 4 4 4 4 4 4 4
2 3 2 2 2 2 2 3 3 2 3 3 4 3 3 3 3 2 2 3 3 3 3 1 2 2 4 4 5 5 4 4 4 4 4 5 4 4
3 3 3 3 3 3 3 2 2 3 3 4 3 3 3 3 3 3 3 3 3 3 3 3 2 2 3 2 3 5 4 4 4 4 5 5 5 4
3 3 3 3 3 3 3 3 3 2 3 4 3 3 3 3 3 3 3 3 4 4 4 3 3 4 5 4 2 2 5 5 4 4 4 5 5 4
3 3 3 3 3 2 3 3 3 3 3 3 3 3 3 3 3 3 3 4 4 4 4 3 3 4 5 5 5 3 3 4 4 5 4 4 4 3
3 3 3 3 3 2 2 2 3 3 3 3 3 3 3 3 3 3 3 2 4 4 4 3 3 3 4 4 4 3 2 1 3 4 6 5 4 4
3 3 3 3 2 2 2 2 3 2 2 3 3 3 3 4 4 4 4 3 3 3 4 3 3 3 4 4 4 4 4 3 2 4 3 4 5 5
3 3 3 3 2 3 2 3 3 3 3 3 3 3 3 3 4 4 4 4 3 3 4 3 3 3 3 3 4 4 5 5 4 3 2 3 6 6
Wind_Direction
206 203 236 249 257 265 268 275 279 284 284 246 264 258 286 289 319 288 290 108 256 273 279 282 281 278 275 272 268 259 254 251 251 251 248 247 247 248
204 215 246 257 252 253 257 265 270 277 288 300 284 298 315 301 273 286 282 200 219 223 239 264 277 280 278 274 269 263 260 258 254 250 246 247 248 250
210 208 228 270 271 269 270 269 267 274 273 287 293 284 280 290 299 290 277 268 229 188 205 235 251 263 268 267 266 265 265 263 259 250 248 249 250 250
215 230 246 245 256 268 279 280 282 284 275 285 288 278 265 264 277 277 276 274 276 184 193 219 233 242 249 254 258 259 259 258 258 257 254 250 250 254
231 245 251 250 253 261 267 273 275 272 270 272 279 289 279 283 274 266 273 277 273 218 198 209 218 226 233 236 241 245 247 249 249 250 253 250 250 254
239 248 252 257 263 269 264 270 278 279 269 268 277 282 279 289 282 284 283 276 283 284 283 259 220 215 222 224 229 235 238 241 242 243 245 246 247 250
235 243 241 265 297 283 288 293 287 279 280 279 281 288 300 305 294 292 293 294 287 289 288 273 249 246 229 219 219 228 236 238 240 241 242 242 241 242
242 247 232 221 233 229 237 254 274 275 285 284 283 296 297 297 303 295 296 295 295 299 295 289 286 284 279 275 159 187 217 228 235 239 238 241 245 244
253 260 268 266 255 264 223 216 227 232 246 271 283 293 293 299 299 291 294 294 295 295 291 288 286 283 285 300 147 180 208 226 236 241 243 245 249 251
249 255 265 274 282 292 280 269 259 240 234 241 268 280 291 299 289 282 280 275 271 264 270 284 289 292 296 279 164 183 202 219 231 238 240 242 244 249
254 254 259 265 299 285 270 272 275 270 231 227 249 262 274 272 279 284 282 276 282 284 271 281 291 299 294 281 197 188 203 215 223 230 235 237 239 246
252 241 221 247 270 248 266 273 280 296 303 275 241 237 242 238 233 254 276 283 286 288 302 291 291 292 287 286 294 245 221 210 214 221 228 231 234 253
279 269 198 160 217 242 261 271 283 290 284 276 267 262 255 250 247 246 262 275 286 288 306 298 291 288 288 292 299 302 293 278 249 228 220 220 227 248
289 295 351 150 226 242 248 257 269 270 273 278 278 277 280 286 286 284 279 279 282 283 294 295 290 292 292 288 294 298 298 292 285 277 263 217 223 229
290 327 296 235 236 229 222 241 253 258 273 278 282 284 288 296 284 267 262 261 260 262 273 282 283 287 285 286 293 295 293 294 286 287 286 275 264 245
258 234 213 226 239 259 244 236 253 273 280 279 283 287 288 275 265 278 284 282 283 283 264 265 269 278 284 291 289 288 291 289 288 289 288 282 274 265
295 265 261 248 245 248 257 266 267 265 269 276 277 281 282 284 288 292 292 291 296 303 301 283 265 259 269 283 287 292 296 296 297 298 285 281 285 288
280 278 282 283 286 292 291 281 273 281 288 287 285 287 290 293 294 290 285 289 297 300 303 307 300 279 270 257 283 287 293 294 294 291 287 282 285 293
255 274 281 289 297 299 296 295 297 301 293 290 293 295 296 297 297 296 297 295 297 301 303 309 306 299 297 300 288 277 296 299 296 286 284 291 294 305
257 272 280 284 285 287 287 290 295 296 288 288 291 296 298 300 298 297 298 305 305 306 307 315 317 313 308 310 310 311 284 296 298 299 301 301 298 289
277 281 284 287 295 293 288 287 284 283 292 291 291 295 295 296 298 298 299 302 291 294 302 313 332 289 286 287 291 309 335 281 293 299 305 298 297 294
287 289 290 292 295 292 285 283 280 277 270 267 279 290 296 296 293 289 293 293 291 300 306 312 312 292 292 296 307 316 322 323 249 226 259 280 299 302
281 288 282 270 267 272 280 283 284 281 272 273 276 278 283 287 285 282 284 289 298 305 306 309 311 304 307 311 315 316 316 314 310 298 273 208 221 243